Location: ????????
(55.4000°N, 39.1167°E)
Time: 05:13:34
(UTC+00:00)

USA 234 - Pass Details

Date: 19 May 2025
Orbit: 1097 x 1111 km, 123.0° (Epoch: 13 June)

Event Time Altitude Azimuth Distance (km) Brightness Sun altitude
Rises 22:25:13 0° 94° (E) 3,913 6.3 -13.4°
Reaches altitude 10° 22:27:41 10° 94° (E) 2,957 5.7 -13.3°
Maximum altitude 22:34:14 81° 8° (N) 1,120 3.4 -13.0°
Drops below altitude 10° 22:40:47 10° 283° (WNW) 2,969 5.5 -12.7°
Sets 22:43:16 0° 282° (WNW) 3,929 6.1 -12.6°
